When you browse on this site, cookies collect data to enhance your experience and personalize the content and advertising you see.
Visit our Privacy Policy to learn more. By continuing to use the site, you agree to this use of cookies and data.
  • En España
  • Lista de países
  • Para 7 días
  • Temperatura del agua
  • Mapa Satelital
  • El tiempo en el mapa
  • Informadores
  • user-avatar
    Iniciar sesión

    Tiempo cada hora Tel Aviv

    Hoy, 18 Febrero, Lunes

    Tiempo Temperatura Precipitaciones Viento Presión Humedad
    00:00 +12°C° 0 mm 4 mps 765 mmHg 59%
    01:00 +12°C° 0 mm 4 mps 765 mmHg 58%
    02:00 +12°C° 0 mm 3 mps 764 mmHg 60%
    03:00 +12°C° 0 mm 3 mps 764 mmHg 61%
    04:00 +12°C° 0 mm 3 mps 764 mmHg 62%
    05:00 +12°C° 0 mm 4 mps 764 mmHg 63%
    06:00 +12°C° 0.3 mm 4 mps 764 mmHg 62%
    07:00 +12°C° 0.3 mm 4 mps 764 mmHg 62%
    08:00 +13°C° 0 mm 4 mps 764 mmHg 60%
    09:00 +13°C° 0.2 mm 4 mps 764 mmHg 57%
    10:00 +14°C° 0.2 mm 4 mps 764 mmHg 54%
    11:00 +15°C° 0.2 mm 4 mps 764 mmHg 51%
    12:00 +15°C° 0.2 mm 4 mps 764 mmHg 53%
    13:00 +15°C° 0.2 mm 4 mps 764 mmHg 55%
    14:00 +14°C° 0 mm 4 mps 764 mmHg 60%
    15:00 +14°C° 0 mm 3 mps 764 mmHg 61%
    16:00 +15°C° 0 mm 2 mps 764 mmHg 61%
    17:00 +15°C° 0 mm 1 mps 764 mmHg 62%
    18:00 +14°C° 0 mm 1 mps 764 mmHg 64%
    19:00 +13°C° 0 mm 1 mps 764 mmHg 67%
    20:00 +13°C° 0 mm 1 mps 765 mmHg 69%
    21:00 +13°C° 0 mm 1 mps 765 mmHg 70%
    22:00 +13°C° 0 mm 1 mps 765 mmHg 72%
    23:00 +12°C° 0 mm 2 mps 765 mmHg 73%

    Mañana, 19 Febrero, Martes

    Tiempo Temperatura Precipitaciones Viento Presión Humedad
    00:00 +12°C° 0 mm 2 mps 766 mmHg 74%
    01:00 +11°C° 0 mm 3 mps 766 mmHg 76%
    02:00 +11°C° 0 mm 3 mps 766 mmHg 77%
    03:00 +11°C° 0 mm 3 mps 766 mmHg 77%
    04:00 +11°C° 0 mm 3 mps 766 mmHg 78%
    05:00 +11°C° 0 mm 3 mps 766 mmHg 78%
    06:00 +11°C° 0 mm 4 mps 766 mmHg 76%
    07:00 +12°C° 0 mm 4 mps 767 mmHg 74%
    08:00 +12°C° 0 mm 4 mps 767 mmHg 71%
    09:00 +14°C° 0 mm 4 mps 767 mmHg 68%
    10:00 +15°C° 0 mm 4 mps 767 mmHg 64%
    11:00 +17°C° 0 mm 4 mps 767 mmHg 60%
    12:00 +17°C° 0 mm 4 mps 767 mmHg 59%
    13:00 +17°C° 0 mm 4 mps 767 mmHg 59%
    14:00 +18°C° 0 mm 4 mps 766 mmHg 59%
    15:00 +17°C° 0.1 mm 4 mps 766 mmHg 61%
    16:00 +17°C° 0.1 mm 3 mps 766 mmHg 63%
    17:00 +17°C° 0.1 mm 3 mps 766 mmHg 65%
    18:00 +16°C° 0.1 mm 2 mps 767 mmHg 68%
    19:00 +15°C° 0.1 mm 2 mps 767 mmHg 71%
    20:00 +15°C° 0.1 mm 1 mps 767 mmHg 73%
    21:00 +14°C° 0 mm 1 mps 767 mmHg 75%
    22:00 +14°C° 0 mm 1 mps 767 mmHg 76%
    23:00 +14°C° 0 mm 2 mps 767 mmHg 77%

    Pasado mañana, 20 Febrero, Miércoles

    Tiempo Temperatura Precipitaciones Viento Presión Humedad
    00:00 +14°C° 0.1 mm 2 mps 767 mmHg 77%
    01:00 +14°C° 0.1 mm 2 mps 767 mmHg 78%
    02:00 +13°C° 0.1 mm 2 mps 767 mmHg 79%
    03:00 +13°C° 0.1 mm 2 mps 767 mmHg 79%
    04:00 +12°C° 0.1 mm 3 mps 767 mmHg 79%
    05:00 +12°C° 0.1 mm 3 mps 767 mmHg 78%
    06:00 +13°C° 0.1 mm 3 mps 767 mmHg 76%
    07:00 +13°C° 0.1 mm 3 mps 767 mmHg 73%
    08:00 +14°C° 0.1 mm 3 mps 768 mmHg 71%
    09:00 +16°C° 0 mm 3 mps 768 mmHg 66%
    10:00 +17°C° 0 mm 2 mps 768 mmHg 61%
    11:00 +17°C° 0 mm 2 mps 768 mmHg 56%
    12:00 +18°C° 0 mm 2 mps 767 mmHg 55%
    13:00 +18°C° 0 mm 2 mps 767 mmHg 54%
    14:00 +18°C° 0 mm 2 mps 766 mmHg 52%
    15:00 +18°C° 0 mm 2 mps 766 mmHg 55%
    16:00 +17°C° 0 mm 2 mps 766 mmHg 57%
    17:00 +17°C° 0 mm 2 mps 766 mmHg 60%
    18:00 +16°C° 0.1 mm 2 mps 766 mmHg 63%
    19:00 +15°C° 0.1 mm 1 mps 767 mmHg 67%
    20:00 +15°C° 0.1 mm 1 mps 767 mmHg 70%
    21:00 +14°C° 0.1 mm 1 mps 767 mmHg 71%
    22:00 +14°C° 0.1 mm 2 mps 767 mmHg 73%
    23:00 +14°C° 0.1 mm 2 mps 767 mmHg 74%

    21 Febrero, Jueves

    Tiempo Temperatura Precipitaciones Viento Presión Humedad
    00:00 +14°C° 0 mm 2 mps 766 mmHg 73%
    01:00 +13°C° 0 mm 2 mps 766 mmHg 73%
    02:00 +13°C° 0 mm 2 mps 766 mmHg 73%
    03:00 +12°C° 0 mm 3 mps 766 mmHg 72%
    04:00 +12°C° 0 mm 3 mps 766 mmHg 71%
    05:00 +12°C° 0 mm 3 mps 766 mmHg 70%
    06:00 +12°C° 0 mm 3 mps 766 mmHg 67%
    07:00 +13°C° 0 mm 3 mps 766 mmHg 64%
    08:00 +14°C° 0 mm 3 mps 767 mmHg 61%
    09:00 +15°C° 0 mm 4 mps 767 mmHg 57%
    10:00 +17°C° 0 mm 4 mps 767 mmHg 53%
    11:00 +18°C° 0 mm 4 mps 767 mmHg 49%
    12:00 +18°C° 0.1 mm 4 mps 766 mmHg 52%
    13:00 +18°C° 0.1 mm 4 mps 766 mmHg 55%
    14:00 +17°C° 0.1 mm 4 mps 765 mmHg 58%
    15:00 +17°C° 0 mm 4 mps 765 mmHg 61%
    16:00 +17°C° 0 mm 3 mps 765 mmHg 63%
    17:00 +17°C° 0 mm 3 mps 765 mmHg 66%
    18:00 +16°C° 0 mm 2 mps 766 mmHg 68%
    19:00 +15°C° 0 mm 2 mps 766 mmHg 71%
    20:00 +15°C° 0 mm 1 mps 767 mmHg 74%
    21:00 +14°C° 0 mm 1 mps 767 mmHg 75%
    22:00 +14°C° 0 mm 2 mps 767 mmHg 77%
    23:00 +14°C° 0 mm 2 mps 767 mmHg 78%

    22 Febrero, Viernes

    Tiempo Temperatura Precipitaciones Viento Presión Humedad
    00:00 +14°C° 0 mm 2 mps 766 mmHg 78%
    01:00 +13°C° 0 mm 2 mps 766 mmHg 78%
    02:00 +12°C° 0 mm 3 mps 766 mmHg 78%
    03:00 +12°C° 0 mm 3 mps 766 mmHg 77%
    04:00 +12°C° 0 mm 3 mps 766 mmHg 76%
    05:00 +12°C° 0 mm 3 mps 765 mmHg 74%
    06:00 +13°C° 0 mm 3 mps 766 mmHg 70%
    07:00 +13°C° 0 mm 3 mps 766 mmHg 66%
    08:00 +14°C° 0 mm 4 mps 766 mmHg 63%
    09:00 +16°C° 0 mm 3 mps 766 mmHg 59%
    10:00 +17°C° 0 mm 3 mps 766 mmHg 54%
    11:00 +18°C° 0 mm 3 mps 765 mmHg 50%
    12:00 +18°C° 0 mm 3 mps 765 mmHg 51%
    13:00 +19°C° 0 mm 3 mps 764 mmHg 52%
    14:00 +19°C° 0 mm 4 mps 763 mmHg 53%
    15:00 +19°C° 0 mm 3 mps 763 mmHg 57%
    16:00 +18°C° 0 mm 3 mps 763 mmHg 61%
    17:00 +17°C° 0 mm 2 mps 763 mmHg 66%
    18:00 +17°C° 0 mm 2 mps 763 mmHg 69%
    19:00 +16°C° 0 mm 2 mps 763 mmHg 72%
    20:00 +15°C° 0 mm 2 mps 764 mmHg 76%
    21:00 +15°C° 0 mm 2 mps 764 mmHg 77%
    22:00 +15°C° 0 mm 2 mps 764 mmHg 78%
    23:00 +13°C° 0 mm 3 mps 764 mmHg 79%

    23 Febrero, Sábado

    Tiempo Temperatura Precipitaciones Viento Presión Humedad
    00:00 +13°C° 0 mm 3 mps 763 mmHg 77%
    01:00 +13°C° 0 mm 3 mps 763 mmHg 76%
    02:00 +14°C° 0 mm 2 mps 763 mmHg 74%
    03:00 +13°C° 0 mm 3 mps 762 mmHg 72%
    04:00 +12°C° 0 mm 3 mps 762 mmHg 70%
    05:00 +12°C° 0 mm 3 mps 762 mmHg 68%
    06:00 +13°C° 0 mm 3 mps 762 mmHg 64%
    07:00 +14°C° 0 mm 3 mps 762 mmHg 61%
    08:00 +16°C° 0 mm 3 mps 762 mmHg 57%
    09:00 +17°C° 0 mm 3 mps 762 mmHg 54%
    10:00 +18°C° 0 mm 3 mps 762 mmHg 51%
    11:00 +19°C° 0 mm 3 mps 762 mmHg 48%
    12:00 +19°C° 0 mm 4 mps 761 mmHg 49%
    13:00 +19°C° 0 mm 4 mps 761 mmHg 49%
    14:00 +19°C° 0 mm 4 mps 760 mmHg 50%
    15:00 +19°C° 0 mm 4 mps 760 mmHg 53%
    16:00 +18°C° 0 mm 3 mps 760 mmHg 56%
    17:00 +17°C° 0 mm 2 mps 760 mmHg 59%
    18:00 +17°C° 0 mm 2 mps 760 mmHg 61%
    19:00 +16°C° 0 mm 2 mps 760 mmHg 63%
    20:00 +15°C° 0 mm 2 mps 760 mmHg 65%
    21:00 +15°C° 0 mm 2 mps 759 mmHg 62%
    22:00 +14°C° 0 mm 3 mps 759 mmHg 59%
    23:00 +14°C° 0 mm 3 mps 759 mmHg 56%
    Mostrar más